Haines, AK

2:11 PM AKDT on September 25, 2016 (GMT -0800)
Haines

Weather History for PAHN - April, 2013

Change the Weather History Date:

Sunday, April 14, 2013

  Actual Average Record
Temperature  
Mean Temperature 38 °F -  
Max Temperature 46 °F 45 °F 55 °F (1978)
Min Temperature 30 °F 32 °F 26 °F (1986)
Degree Days  
Heating Degree Days 27    
Moisture  
Dew Point 15 °F    
Average Humidity 39    
Maximum Humidity 50    
Minimum Humidity 29    
Precipitation  
Precipitation 0.00 in - - ()
Sea Level Pressure  
Sea Level Pressure 30.30 in    
Wind  
Wind Speed 15 mph (WNW)    
Max Wind Speed 22 mph    
Max Gust Speed 26 mph    
Visibility 10 miles    
Events      
Averages and records for this station are not official NWS values.
T = Trace of Precipitation, MM = Missing Value Source: NWS Daily Summary

Daily Weather History Graph

Daily Weather History Graph

Search for Another Location

Airport or City:

Trip Planner

Search our weather history database for the weather conditions in past years. The results will help you decide how hot, cold, wet, or windy it might be!

Date:

Astronomy

Apr. 14, 2013 Rise Set
Actual Time 5:49 AM AKDT 8:16 PM AKDT
Civil Twilight 5:04 AM AKDT 9:01 PM AKDT
Nautical Twilight 4:05 AM AKDT 10:01 PM AKDT
Astronomical Twilight 2:47 AM AKDT 11:21 PM AKDT
Moon 7:46 AM AKDT (4/14) 12:30 AM AKDT (4/14)
Length of Visible Light 15h 57m
Length of Day
14h 27m
Waxing Crescent, 18% of the Moon is Illuminated
Apr 14
Waxing Crescent
Apr 18
First Quarter
Apr 25
Full
May 2
Last Quarter
May 9
New

Hourly Weather History & Observations

Time (AKDT) Temp. Windchill Dew Point Humidity Pressure Visibility Wind Dir Wind Speed Gust Speed Precip Events Conditions
12:54 AM 34.0 °F 23.8 °F 12.9 °F 42% 30.21 in 10.0 mi NW 16.1 mph 21.9 mph N/A   Clear
1:54 AM 33.1 °F 23.9 °F 14.0 °F 46% 30.22 in 10.0 mi NW 12.7 mph 20.7 mph N/A   Clear
2:54 AM 32.0 °F 22.1 °F 15.1 °F 50% 30.23 in 10.0 mi WNW 13.8 mph - N/A   Clear
3:54 AM 32.0 °F 22.1 °F 15.1 °F 50% 30.25 in 10.0 mi WNW 13.8 mph - N/A   Clear
4:54 AM 30.9 °F 21.2 °F 14.0 °F 50% 30.26 in 10.0 mi NW 12.7 mph 20.7 mph N/A   Clear
5:54 AM 30.9 °F 21.2 °F 14.0 °F 50% 30.28 in 10.0 mi NW 12.7 mph - N/A   Clear
6:54 AM 32.0 °F 22.5 °F 14.0 °F 48% 30.30 in 10.0 mi NW 12.7 mph - N/A   Clear
7:54 AM 33.1 °F 23.4 °F 14.0 °F 46% 30.30 in 10.0 mi NW 13.8 mph - N/A   Clear
8:54 AM 34.0 °F 24.6 °F 14.0 °F 44% 30.31 in 10.0 mi WNW 13.8 mph - N/A   Clear
9:54 AM 39.0 °F 29.6 °F 12.9 °F 34% 30.31 in 10.0 mi WNW 18.4 mph 26.5 mph N/A   Clear
10:54 AM 41.0 °F 31.4 °F 12.9 °F 32% 30.30 in 10.0 mi WNW 21.9 mph - N/A   Clear
11:54 AM 42.1 °F 33.3 °F 14.0 °F 32% 30.31 in 10.0 mi West 19.6 mph 26.5 mph N/A   Clear
12:54 PM 44.1 °F 36.2 °F 15.1 °F 31% 30.30 in 10.0 mi West 18.4 mph - N/A   Clear
1:54 PM 45.0 °F 37.6 °F 17.1 °F 33% 30.30 in 10.0 mi West 17.3 mph - N/A   Clear
2:54 PM 46.0 °F 39.3 °F 15.1 °F 29% 30.30 in 10.0 mi WNW 16.1 mph 25.3 mph N/A   Clear
3:54 PM 45.0 °F 38.5 °F 15.1 °F 30% 30.30 in 10.0 mi WNW 13.8 mph 23.0 mph N/A   Clear
4:54 PM 46.0 °F 39.6 °F 16.0 °F 30% 30.30 in 10.0 mi WNW 15.0 mph 23.0 mph N/A   Clear
5:54 PM 45.0 °F 38.2 °F 16.0 °F 31% 30.30 in 10.0 mi West 15.0 mph - N/A   Clear
6:54 PM 43.0 °F 35.1 °F 16.0 °F 34% 30.31 in 10.0 mi WNW 17.3 mph 21.9 mph N/A   Clear
7:54 PM 39.9 °F 33.9 °F 16.0 °F 38% 30.32 in 10.0 mi WNW 9.2 mph - N/A   Clear
8:54 PM 39.0 °F 32.3 °F 15.1 °F 38% 30.34 in 10.0 mi NNW 10.4 mph 18.4 mph N/A   Clear
9:54 PM 37.9 °F 30.0 °F 14.0 °F 38% 30.35 in 10.0 mi NW 12.7 mph - N/A   Clear
10:54 PM 36.0 °F 27.1 °F 15.1 °F 43% 30.36 in 10.0 mi NW 13.8 mph 20.7 mph N/A   Clear
11:54 PM 35.1 °F 26.4 °F 14.0 °F 42% 30.36 in 10.0 mi WNW 12.7 mph - N/A   Clear